KB1JDX Weather Reports


Display with metric or nautical units.
time (UTC)temp
F
wind
direction
speed
MPH
gust
MPH
rain 1hr
in
rain 24hr
in
rain mn
in
humidity
%
barometer
mb
20260901073219 66 217 0.0 0.0 0.00 0.00 0.00 100 1017.2
20260901073114 66 217 0.0 0.0 0.00 0.00 0.00 100 1017.2
20260901071219 66 217 0.0 0.0 0.00 0.00 0.00 100 1017.4
20260901065219 66 217 0.0 0.0 0.00 0.00 0.00 100 1017.2
20260901063219 66 217 0.0 0.0 0.00 0.00 0.00 100 1017.1
20260901063114 66 217 0.0 0.0 0.00 0.00 0.00 100 1017.1
20260901061219 66 217 0.0 0.0 0.00 0.00 0.00 100 1017.6
20260901055219 66 217 0.0 0.0 0.00 0.00 0.00 100 1017.7
20260901053114 66 217 0.0 0.0 0.00 0.00 0.00 100 1017.8
20260901051220 66 217 0.0 0.0 0.00 0.00 0.00 100 1017.7
20260901045219 66 217 0.0 0.0 0.00 0.00 0.00 100 1018.2
20260901043219 67 217 0.0 0.0 0.00 0.00 0.00 100 1018.1
20260901043114 67 217 0.0 0.0 0.00 0.00 0.00 100 1018.2
20260901041219 67 217 0.0 0.0 0.00 0.00 0.00 100 1018.1
20260901035219 67 217 0.0 0.0 0.00 0.00 0.00 100 1018.2
20260901033219 67 217 0.0 0.0 0.00 0.00 0.00 100 1018.5
20260901033114 67 217 0.0 0.0 0.00 0.00 0.00 100 1018.5
20260901031219 67 217 0.0 0.0 0.00 0.00 0.00 100 1018.5
20260901025220 67 217 0.0 0.0 0.00 0.00 0.00 100 1018.2
20260901023219 67 217 0.0 0.0 0.00 0.00 0.00 100 1018.2
20260901023114 67 217 0.0 0.0 0.00 0.00 0.00 100 1018.2
20260901021220 67 217 0.0 0.0 0.00 0.00 0.00 100 1018.2
20260901015219 67 217 0.0 0.0 0.00 0.00 0.00 100 1018.4
20260901013114 67 217 0.0 0.0 0.00 0.00 0.00 100 1018.6
20260901011219 68 217 0.0 0.0 0.00 0.00 0.00 10 1018.5
20260901005219 68 217 0.0 1.0 0.00 0.00 0.00 22 1018.6
20260901003221 69 217 0.0 1.0 0.00 0.00 0.00 28 1018.5
20260901003114 69 217 0.0 1.0 0.00 0.00 0.00 28 1018.5
20260901001219 69 217 0.0 1.0 0.00 0.00 0.00 31 1018.3
20260831235219 69 217 0.0 2.0 0.00 0.00 0.00 28 1018.3
20260831233219 70 221 0.0 2.0 0.00 0.00 0.00 12 1018.6
20260831233114 70 221 0.0 2.0 0.00 0.00 0.00 12 1018.5
20260831231218 71 182 0.0 2.0 0.00 0.00 0.00 11 1018.5
20260831225219 72 178 0.0 10.0 0.00 0.00 0.00 12 1018.5
20260831223114 72 215 1.0 10.0 0.00 0.00 0.00 14 1018.4
20260831215219 74 221 0.0 0.0 0.00 0.00 0.00 21 1018.4
20260831213219 76 211 0.0 0.0 0.00 0.00 0.00 45 1018.4
20260831213114 76 211 0.0 0.0 0.00 0.00 0.00 45 1018.4
20260831211219 76 198 0.0 0.0 0.00 0.00 0.00 45 1018.1
20260831203219 77 198 0.0 0.0 0.00 0.00 0.00 47 1018.2
20260831203114 77 198 0.0 0.0 0.00 0.00 0.00 47 1018.2
20260831195219 79 198 0.0 0.0 0.00 0.00 0.00 48 1018.3
20260831193221 76 198 0.0 0.0 0.00 0.00 0.00 45 1018.7
20260831193114 76 198 0.0 0.0 0.00 0.00 0.00 45 1018.7
20260831191219 76 198 0.0 0.0 0.00 0.00 0.00 48 1018.9
20260831183219 77 198 0.0 4.0 0.00 0.00 0.00 49 1018.9
20260831183114 77 198 0.0 4.0 0.00 0.00 0.00 48 1018.9
20260831181219 79 198 0.0 4.0 0.00 0.00 0.00 46 1019.2
20260831175219 77 197 0.0 0.0 0.00 0.00 0.00 46 1019.2
20260831173219 77 261 0.0 0.0 0.00 0.00 0.00 44 1019.5
20260831173114 77 261 0.0 0.0 0.00 0.00 0.00 44 1019.5
20260831163219 78 261 0.0 0.0 0.00 0.00 0.00 41 1019.9
20260831163114 78 261 0.0 0.0 0.00 0.00 0.00 41 1020.0
20260831161219 76 355 0.0 0.0 0.00 0.00 0.00 39 1020.1
20260831155220 77 355 0.0 0.0 0.00 0.00 0.00 38 1020.1
20260831153219 76 355 0.0 0.0 0.00 0.00 0.00 33 1020.2
20260831153114 76 355 0.0 0.0 0.00 0.00 0.00 34 1020.2
20260831145219 69 355 0.0 0.0 0.00 0.00 0.00 100 1020.1
20260831143219 69 355 0.0 0.0 0.00 0.00 0.00 100 1020.1
20260831143114 69 355 0.0 0.0 0.00 0.00 0.00 100 1020.1
20260831141219 69 355 0.0 0.0 0.00 0.00 0.00 100 1020.1
20260831135219 68 351 0.0 0.0 0.00 0.00 0.00 100 1020.0
20260831133219 67 203 0.0 0.0 0.00 0.00 0.00 100 1020.0
20260831133114 67 205 0.0 0.0 0.00 0.00 0.00 100 1020.0
20260831131218 66 198 0.0 0.0 0.00 0.00 0.00 100 1019.9
20260831125218 65 193 0.0 0.0 0.00 0.00 0.00 100 1020.0
20260831123220 64 193 0.0 0.0 0.00 0.00 0.00 100 1020.0
20260831123114 64 193 0.0 0.0 0.00 0.00 0.00 100 1020.0
20260831121218 63 193 0.0 0.0 0.00 0.00 0.00 100 1020.0
20260831115220 62 192 0.0 0.0 0.00 0.00 0.00 100 1019.6
20260831113218 62 192 0.0 0.0 0.00 0.00 0.00 100 1019.7
20260831113114 62 192 0.0 0.0 0.00 0.00 0.00 100 1019.6
20260831111218 62 192 0.0 0.0 0.00 0.00 0.00 100 1019.4
20260831105218 61 193 0.0 0.0 0.00 0.00 0.00 100 1019.0
20260831103114 61 192 0.0 0.0 0.00 0.00 0.00 100 1019.0
20260831101219 62 192 0.0 0.0 0.00 0.00 0.00 100 1018.7
20260831095218 62 192 0.0 0.0 0.00 0.00 0.00 100 1018.7
20260831093218 62 192 0.0 0.0 0.00 0.00 0.00 100 1018.6
20260831093113 62 192 0.0 0.0 0.00 0.00 0.00 100 1018.5
20260831091219 63 192 0.0 0.0 0.00 0.00 0.00 100 1018.5
20260831085219 63 192 0.0 0.0 0.00 0.00 0.00 100 1018.5
20260831083219 63 192 0.0 0.0 0.00 0.00 0.00 100 1018.4
20260831083113 63 192 0.0 0.0 0.00 0.00 0.00 100 1018.2
20260831081220 64 192 0.0 0.0 0.00 0.00 0.00 100 1018.3